AirNav   Air Wisconsin Up To $57,000 Bonus
 
 849 users online  

W49 Rosario Seaplane Base
Rosario, Washington, USA

GOING TO ROSARIO?


FAA INFORMATION EFFECTIVE 05 DECEMBER 2019

Location

FAA Identifier: W49
Lat/Long: 48-38-44.3730N 122-52-04.6580W
48-38.739550N 122-52.077633W
48.6456592,-122.8679606
(estimated)
Elevation: 0 ft. / 0 m (estimated)
Variation: 21E (1985)
Time zone: UTC -8 (UTC -7 during Daylight Saving Time)
Zip code: 98279

Seaplane Base Operations

Seaplane Base use: Open to the public
Activation date: 01/1948
Control tower: no
ARTCC: SEATTLE CENTER
FSS: SEATTLE FLIGHT SERVICE STATION
NOTAMs facility: SEA (NOTAM-D service available)
Attendance: DAYLIGHT HOURS
Wind indicator: no
Segmented circle: no

Seaplane Base Communications

CTAF: 128.25
WX AWOS-3 at ORS (4 nm NW): 135.425 (360-376-6045)
WX ASOS at FHR (10 nm SW): 135.675 (360-378-8491)
WX ASOS at BLI (16 nm NE): PHONE 360-671-8688

Nearby radio navigation aids

VOR radial/distance  VOR name  Freq  Var
HUHr192/21.3WHATCOM VORTAC113.0020E
CVVr328/24.7PENN COVE VOR/DME117.2019E
YYJr084/24.9VICTORIA VOR/DME113.7017E
YVRr140/28.2VANCOUVER VOR/DME115.9017E

 
NDB name  Hdg/Dist  Freq  Var  ID
FRIDAY HARBOR021/10.128417EFHR ..-. .... .-.
SKAGIT/BAY VIEW285/20.824016EBVS -... ...- ...
EDIZ HOOK018/37.133817ENOW -. --- .--

Seaplane Base Services

Airframe service: NONE
Powerplant service: NONE
Bottled oxygen: NONE
Bulk oxygen: NONE

Runway Information

Runway 16W/34W

Dimensions: 10000 x 1000 ft. / 3048 x 305 m
Surface: water
RUNWAY 16W  RUNWAY 34W
Traffic pattern: leftleft
Obstructions: 700 ft. hill, 1000 ft. from runway, 1:1 slope to clearnone

Runway 7W/25W

Dimensions: 2500 x 1000 ft. / 762 x 305 m
Surface: water
RUNWAY 7W  RUNWAY 25W
Traffic pattern: leftleft
Obstructions: 300 ft. hill, 3000 ft. from runway, 10:1 slope to clear1100 ft. hill, 4000 ft. from runway, 3:1 slope to clear

Seaplane Base Ownership and Management from official FAA records

Ownership: Privately-owned
Owner: ROSARIO RESORT
ROSARIO RESORT, 1400 ROSARIO ROAD
EASTSOUND, WA 98245
Phone 360-376-2222
Manager: CHRISTOPHER PEACOCK
ROSARIO RESORT, 1400 ROSARIO ROAD
EASTSOUND, WA 98245
Phone 360-376-2222
SELECT #4 FOR MARINA OFFICES

Seaplane Base Operational Statistics

Aircraft operations: avg 48/week *
84% air taxi
16% transient general aviation
* for 12-month period ending 31 December 2017

Additional Remarks

TRANSIENT DOCK AVBL.
CTC HARBORMASTER FOR OVNGT SEAPLANE MOORAGE. PHONE NR 360-376-2222. SELECT OPTION 4 FOR MARINA OFC.
FOR CD CTC WHIDBEY APCH AT 360-257-3310.

Instrument Procedures

There are no published instrument procedures at W49.

Some nearby airports with instrument procedures:

KORS - Orcas Island Airport (4 nm NW)
KFHR - Friday Harbor Airport (10 nm SW)
KBLI - Bellingham International Airport (16 nm NE)
KNUW - Whidbey Island Naval Air Station (Ault Field) (20 nm SE)
KBVS - Skagit Regional Airport (21 nm SE)
 
Loc | Ops | Rwys | IFR | FBO | Links
Com | Nav | Svcs | Stats | Notes
Area around W49 (Rosario Seaplane Base)
 
Road maps at: MapQuest Bing Google
 
Aerial photo
WARNING: Photo may not be current or correct
Aerial photo of W49 (Rosario Seaplane Base)
Do you have a better or more recent aerial photo of Rosario Seaplane Base that you would like to share? If so, please send us your photo.

 
Sectional chart

 
Airport distance calculator
Flying to Rosario Seaplane Base? Find the distance to fly.

From to W49

Sunrise and sunset
Times for 05-Dec-2019
 Local
(UTC-8)
 Zulu
(UTC)
Morning civil twilight07:1215:12
Sunrise07:4915:49
Sunset16:1600:16
Evening civil twilight16:5200:52

Current date and time
Zulu (UTC)  06-Dec-2019 05:50:59
Local (UTC-8)  05-Dec-2019 21:50:59
 
METAR
KORS 
3nm N 
060535Z AUTO 00000KT 10SM OVC016 07/04 A3000 RMK AO2
CWEZ 
10nm NW 
060500Z AUTO 03003KT 07/04 RMK AO1 SLP163 T00660037 56007
KFHR 
10nm SW 
060453Z AUTO 29003KT 10SM OVC013 07/04 A3003 RMK AO2 SLP168 T00670039
CWZO 
16nm W 
060500Z AUTO 04008KT RMK AO1
KBLI 
16nm NE 
060453Z 00000KT 10SM SCT040 OVC090 06/01 A3002 RMK AO2 SLP173 T00560011
KNUW 
20nm SE 
060456Z 11004KT 10SM SCT030 BKN090 06/03 A3005 RMK SLP174 T00610033
TAF
KBLI 
16nm NE 
051737Z 0518/0618 VRB04KT P6SM BKN040 OVC100 FM052100 01005KT P6SM BKN050 BKN100 FM060600 VRB02KT P6SM OVC050
KNUW 
20nm SE 
0423/0523 32006KT 9999 SCT009 BKN025 OVC090 650609 651503 QNH2987INS TEMPO 0423/0505 VRB06KT 9999 VCSH BKN015 OVC040 FM050500 35007KT 9999 VCSH SCT009 BKN030 OVC150 650509 651404 550509 QNH2992INS TEMPO 0505/0509 6000 -RA BR BKN012 OVC060 T11/0423Z T06/0513Z COR 0109 FS30143
NOTAMs
Click for the latest NOTAMs
NOTAMs are issued by the DoD/FAA and will open in a separate window not controlled by AirNav.

 

 
 

Would you like to see your business listed on this page?

 If your business provides an interesting product or service to pilots, flight crews, aircraft, or users of the Rosario Seaplane Base, you should consider listing it here.  To start the listing process, click on the button below
 
Add a business
 

Other Pages about Rosario Seaplane Base

Update a link
 
Copyright © AirNav, LLC. All rights reserved. Privacy Policy  Contact